SAST,Max TemperatureF,Mean TemperatureF,Min TemperatureF,Max Dew PointF,MeanDew PointF,Min DewpointF,Max Humidity, Mean Humidity, Min Humidity, Max Sea Level PressureIn, Mean Sea Level PressureIn, Min Sea Level PressureIn, Max VisibilityMiles, Mean VisibilityMiles, Min VisibilityMiles, Max Wind SpeedMPH, Mean Wind SpeedMPH, Max Gust SpeedMPH,PrecipitationIn, CloudCover, Events, WindDirDegrees
2013-8-1,82,65,48,43,36,27,62,30,13,30.28,30.23,30.18,12,12,12,13,6,,0.00,,,346
2013-8-2,82,70,53,50,36,28,77,30,11,30.30,30.22,30.18,19,13,12,20,12,,0.00,,,345
2013-8-3,75,60,45,53,46,36,94,61,25,30.32,30.25,30.18,12,8,0,7,5,,0.00,7,Fog,43
2013-8-4,82,68,53,55,39,32,94,39,11,30.19,30.14,30.09,19,8,1,16,9,,0.00,6,Fog,336
2013-8-5,60,52,44,52,49,45,100,85,63,30.21,30.14,30.06,12,5,1,8,3,,0.00,5,Fog,82
2013-8-6,62,52,42,52,49,42,100,83,55,30.06,29.99,29.95,12,5,0,12,5,,0.20,5,Fog-Rain,268
2013-8-7,59,52,46,48,46,43,94,84,59,30.04,29.94,29.86,12,6,1,25,13,37,0.20,6,Rain,286
2013-8-8,53,49,45,49,45,41,94,87,68,30.30,30.17,30.04,12,7,4,18,15,,0.31,6,Rain,287
2013-8-9,57,50,42,45,43,39,93,77,55,30.38,30.33,30.30,19,8,6,9,7,,0.01,4,Rain,315
2013-8-10,62,51,40,45,40,36,82,63,34,30.29,30.11,29.95,19,16,12,15,6,,0.00,,,54
2013-8-11,73,57,41,52,40,28,88,55,15,30.01,29.88,29.83,19,11,6,15,5,,0.00,4,,317
2013-8-12,69,55,41,45,42,39,82,54,28,29.99,29.92,29.80,12,12,12,17,7,,0.00,,,330
2013-8-13,65,56,48,54,46,37,94,68,34,29.83,29.74,29.68,12,7,6,24,8,23,0.12,4,Rain,266
2013-8-14,60,53,46,46,42,37,87,67,44,30.01,29.93,29.83,12,7,6,21,13,32,0.02,5,,274
2013-8-15,60,52,44,45,41,37,81,62,42,29.98,29.90,29.83,12,7,6,21,8,26,0.02,2,Rain,309
2013-8-16,67,58,48,45,40,37,76,49,25,30.01,29.85,29.65,12,8,6,28,12,44,0.00,2,,300
2013-8-17,61,55,49,50,44,38,94,66,37,30.06,29.86,29.68,12,7,4,30,19,43,0.00,5,Rain,276
2013-8-18,60,54,47,45,40,37,82,63,39,30.36,30.21,30.06,12,8,6,22,18,,0.00,4,,282
2013-8-19,62,52,41,48,41,36,87,67,32,30.35,30.25,30.15,19,13,12,10,5,,0.00,,,51
2013-8-20,75,60,44,48,39,30,82,53,16,30.12,29.99,29.92,19,14,6,12,4,,0.00,6,,322
2013-8-21,60,51,42,50,44,39,93,80,54,30.18,29.91,29.77,12,7,3,31,9,44,0.24,5,Rain,291
2013-8-22,59,50,40,39,36,32,81,61,29,30.28,30.22,30.18,19,9,6,14,9,,0.00,2,,295
2013-8-23,60,50,40,45,41,36,87,69,35,30.24,30.15,30.06,19,11,6,9,5,,0.00,6,,22
2013-8-24,64,52,41,48,44,39,93,69,42,30.34,30.24,30.12,12,8,6,15,7,,0.00,2,,306
2013-8-25,65,53,41,52,46,39,88,72,47,30.34,30.16,29.95,19,11,6,10,5,,0.00,1,,63
2013-8-26,67,58,49,54,49,43,88,74,46,29.92,29.87,29.77,19,8,4,15,6,,0.00,5,,242
2013-8-27,73,60,48,52,48,43,94,67,27,29.92,29.85,29.80,19,8,6,13,5,,0.00,4,,133
2013-8-28,74,64,53,54,51,46,94,74,37,29.89,29.81,29.71,12,8,4,25,6,,0.00,4,,193
2013-8-29,55,50,46,52,49,39,94,86,74,29.90,29.84,29.77,12,7,3,10,5,,0.16,6,Rain,291
2013-8-30,61,50,39,39,36,32,87,57,26,29.91,29.86,29.80,19,10,6,23,10,,0.00,1,,290
2013-8-31,62,54,47,45,38,32,71,53,34,30.09,29.95,29.83,12,7,6,34,24,46,0.00,4,,282